Simultaneous Nadir Overpasses (SNOs) Predictions

Prediction of SNOs between GOES-15 and TERRA Satellite Orbit:

Table of predicted SNOs for the next 14.0 days since TLE Epoch: 2/2/2019
Index Date Time (GOES-15) GOES-15 Lat,Lon TERRA Lat,Lon Distance(km) Time Diff (sec)
1 02/02/2019 07:06:03 -0.01,-127.77 -0.20,-128.52 86.94 80
2 02/04/2019 06:51:13 -0.01,-127.83 0.48,-125.58 256.54 80
3 02/04/2019 19:12:28 0.02,-127.81 0.65,-130.73 332.31 80
4 02/06/2019 19:02:58 0.02,-127.88 0.00,-127.78 10.79 80
5 02/08/2019 18:50:48 0.03,-127.94 -0.62,-124.83 353.34 80
6 02/09/2019 07:12:12 -0.03,-128.00 -0.47,-130.03 230.46 80
7 02/11/2019 06:57:23 -0.03,-128.06 0.17,-127.08 110.95 80
8 02/11/2019 19:18:39 0.03,-128.03 0.93,-132.24 479.48 80
9 02/13/2019 06:45:16 -0.02,-128.11 0.85,-124.15 451.41 80
10 02/13/2019 19:06:31 0.03,-128.08 0.26,-129.31 139.25 80
11 02/15/2019 18:57:02 0.02,-128.12 -0.32,-126.35 200.06 80




NCC Satellite Simultaneous Nadir Overpasses (SNOs) Prediction Service
